Regional Weather Roundup
Issued by NWS Sterling, VA

Home | Current Version | Previous Version | Graphics & Text | Print | Product List | Glossary On
Versions: 1 2 3 4 5 6 7 8 9 10 11 12 13 14 15 16 17 18 19 20 21 22 23 24 25 26 27
000
ASUS41 KLWX 260310
RWRLWX

REGIONAL WEATHER ROUNDUP
NATIONAL WEATHER SERVICE BALTIMORE MD/WASHINGTON DC
1100 PM EDT THU AUG 25 2016

Note: "FAIR" indicates few or no clouds below 12,000 feet
with no significant weather and/or obstructions to visibility.
 TC=TEMPERATURE CELSIUS

 * =Non NWS site. Station does not report precipitation (e.g. rain,
    snow, etc.), thunder, or fog.

DCZ001-MDZ009-015-VAZ040>042-051-053>054-260400-
WASHINGTON METRO

CITY           SKY/WX    TMP DP  RH WIND       PRES   REMARKS
WASHINGTON NAT PTCLDY    82  75  79 S7        30.02S
DULLES         PTCLDY    80  74  81 S6        30.02F
ANDREWS AFB    CLEAR     77  71  84 S7        30.02S
FT BELVOIR     CLEAR     75  74  95 CALM      30.01F
QUANTICO       CLEAR     80  75  84 CALM      30.02F
LEESBURG*      CLEAR     81  77  89 CALM      30.03S
MANASSAS*      CLEAR     77  77 100 CALM      30.02F
GAITHERSBURG*  CLEAR     79  72  78 CALM      30.07S

$$

MDZ006>007-011-014-260400-
BALTIMORE METRO

CITY           SKY/WX    TMP DP  RH WIND       PRES   REMARKS
BWI AIRPORT    PTCLDY    79  72  79 SW3       30.01F
MD SCIENCE CTR   N/A     82  72  71 MISG      30.01F
MARTIN STATE   CLEAR     81  79  94 S3        30.02F
ANNAPOLIS      CLEAR     81  75  82 S5        30.02S
FORT MEADE*    CLEAR    N/A N/A N/A CALM      30.04S

$$

MDZ012-015-019>023-260400-
MARYLAND EASTERN SHORE

CITY           SKY/WX    TMP DP  RH WIND       PRES   REMARKS
OCEAN CITY     CLEAR     79  70  74 SW10      30.05F
SALISBURY      CLEAR     73  68  84 S6        30.05F
BAY BRIDGE AP* CLEAR     81  75  83 S7        30.02S
EASTON*        CLEAR     79  74  85 S6        30.07S

$$

MDZ017>025-260400-
SOUTHERN MARYLAND

CITY           SKY/WX    TMP DP  RH WIND       PRES   REMARKS
PATUXENT RIVER PTCLDY    78  71  79 S3        30.03F
ST INIGOES     CLEAR     80  74  81 S6        30.03S
LEONARDTOWN*   CLEAR     77  70  78 CALM      30.05F

$$

MDZ003>005-260400-
NORTH CENTRAL MARYLAND

CITY           SKY/WX    TMP DP  RH WIND       PRES   REMARKS
FREDERICK*     CLEAR     75  75 100 CALM      30.04F
HAGERSTOWN APT CLEAR     82  73  74 SW6       30.02F

$$

MDZ501>502-260400-
WESTERN MARYLAND

CITY           SKY/WX    TMP DP  RH WIND       PRES   REMARKS
OAKLAND*       PTCLDY    70  70 100 SW9       30.17F
CUMBERLAND*    CLEAR     79  72  78 CALM      30.07F

$$

VAZ025>031-260400-
SHENANDOAH VALLEY

CITY           SKY/WX    TMP DP  RH WIND       PRES   REMARKS
WINCHESTER*    CLEAR     75  72  88 CALM      30.04S
FRONT ROYAL*   FAIR      77  73  88 S3        30.03F
LURAY*         FAIR     N/A N/A N/A CALM      30.05F
NEW MARKET*    FAIR     N/A N/A N/A CALM      30.04F
STAUNTON*      CLEAR     74  72  93 CALM      30.10S
WAYNESBORO*    FAIR      75  72  88 S12       30.10F

$$

WVZ021-048>050-054>055-260400-
EASTERN WEST VIRGINIA PANHANDLE

CITY           SKY/WX    TMP DP  RH WIND       PRES   REMARKS
MARTINSBURG    CLEAR     78  74  87 CALM      30.02S
PETERSBURG*    PTCLDY    75  73  93 CALM      30.06F

$$

VAZ036>039-050-260400-
CENTRAL FOOTHILLS

CITY           SKY/WX    TMP DP  RH WIND       PRES   REMARKS
CHARLOTTESVILL CLEAR     81  76  84 W5        30.04F
CULPEPER*      CLEAR     76  76  98 CALM      30.04S
ORANGE*          N/A     77  77 100 CALM      30.05F
GORDONSVILLE*  NOT AVBL
WARRENTON*     FAIR      75  70  83 CALM      30.02F

$$

VAZ055>057-260400-
NORTH AND CENTRAL PIEDMONT

CITY           SKY/WX    TMP DP  RH WIND       PRES   REMARKS
FREDERICKSBRG* CLEAR     77  77 100 CALM      30.02F
STAFFORD*      CLEAR     74  73  96 CALM      30.07S FOG

$$

NCZ024-NYZ072-PAZ021-071-VAZ022-071-260400-
OTHER REGIONAL OBSERVATIONS

CITY           SKY/WX    TMP DP  RH WIND       PRES   REMARKS
NEW YORK CITY    N/A     81  70  69 MISG        N/A
PHILADELPHIA   CLEAR     79  70  74 S8        30.02F
PITTSBURGH     MOCLDY    80  72  76 SW8       30.02S
ROANOKE        CLEAR     77  71  82 W5        30.12S
RICHMOND       PTCLDY    77  70  79 S6        30.04F
RALEIGH        PTCLDY    80  69  69 S3        30.08F

$$

ANZ530>537-260400-
MARINE OBSERVATIONS

STATION/POSITION TIME  TEMP    WIND        PRES
                       AIR SEA DIR/SP/G
                 (UTC) (F)     (DEG/KT/KT) (MB)
THOMAS PT LIGHT  0300   82 81  180/ 15/ 16 1017.7F
BALT KEY BRIDGE  0248   81     170/  4/  5 1016.2F
COVE POINT       0248   80     200/  9/ 12 1017.5F
LEWISETTA        0248   79 82  210/  9/ 11 1016.6F
SOLOMONS ISLAND  0248   80 84  170/  4/  5   N/A
PINEY POINT      0248          190/  6/  7   N/A

$$





USA.gov is the U.S. government's official web portal to all federal, state and local government web resources and services.